Location: Unspecified
(42.7170°S, 0.0000°E)
Time: 23:54:12
(UTC+00:00)

N. Korean satellite - Pass Details

Date: 26 May 2019
Orbit: 455 x 510 km, 97.2° (Epoch: 26 June)

Event Time Altitude Azimuth Distance (km) Brightness Sun altitude
Rises 06:03:48 0° 341° (NNW) 2,475 10.1 -12.9°
Reaches altitude 10° 06:06:12 10° 323° (NW) 1,616 9.0 -12.5°
Maximum altitude 06:08:50 20° 274° (W) 1,138 7.9 -12.0°
Enters shadow 06:09:36 19° 256° (WSW) 1,190 7.9 -11.9°
